McCook, NE

2:55 AM CST on December 04, 2016 (GMT -0600)
McCook Municipal

Weather History for KMCK - July, 2013

Change the Weather History Date:

Thursday, July 4, 2013

  Actual Average Record
Temperature  
Mean Temperature 78 °F 75 °F  
Max Temperature 94 °F 90 °F 109 °F (1969)
Min Temperature 62 °F 61 °F 43 °F (1915)
Cooling Degree Days 12    
Growing Degree Days 28 (Base 50)    
Moisture  
Dew Point 45 °F    
Average Humidity 32    
Maximum Humidity 58    
Minimum Humidity 16    
Precipitation  
Precipitation 0.00 in 0.11 in 1.82 in (1984)
Month to date precipitation 0.00 0.41  
Year to date precipitation 5.99 11.73  
Sea Level Pressure  
Sea Level Pressure 29.82 in    
Wind  
Wind Speed 10 mph (South)    
Max Wind Speed 15 mph    
Max Gust Speed 26 mph    
Visibility 10 miles    
Events      
T = Trace of Precipitation, MM = Missing Value Source: NWS Daily Summary

Daily Weather History Graph

Daily Weather History Graph

Search for Another Location

Airport or City:

Trip Planner

Search our weather history database for the weather conditions in past years. The results will help you decide how hot, cold, wet, or windy it might be!

Date:

Astronomy

Jul. 04, 2013 Rise Set
Actual Time 6:18 AM CDT 9:15 PM CDT
Civil Twilight 5:45 AM CDT 9:47 PM CDT
Nautical Twilight 5:04 AM CDT 10:29 PM CDT
Astronomical Twilight 4:16 AM CDT 11:17 PM CDT
Moon 3:36 AM CDT 6:21 PM CDT
Length of Visible Light 16h 02m
Length of Day
14h 56m
Waning Crescent, 11% of the Moon is Illuminated
Jul 4
Waning Crescent
Jul 8
New
Jul 15
First Quarter
Jul 22
Full
Jul 29
Last Quarter

Hourly Weather History & Observations

Time (CDT) Temp. Dew Point Humidity Pressure Visibility Wind Dir Wind Speed Gust Speed Precip Events Conditions
12:53 AM 71.1 °F 44.1 °F 38% 29.88 in 10.0 mi South 11.5 mph 19.6 mph N/A   Clear
1:53 AM 69.1 °F 45.0 °F 42% 29.87 in 10.0 mi South 11.5 mph - N/A   Clear
2:53 AM 69.1 °F 46.0 °F 44% 29.86 in 10.0 mi South 12.7 mph - N/A   Clear
3:53 AM 66.0 °F 46.9 °F 50% 29.86 in 10.0 mi South 10.4 mph - N/A   Clear
4:53 AM 64.9 °F 46.9 °F 52% 29.86 in 10.0 mi South 6.9 mph - N/A   Clear
5:53 AM 64.0 °F 46.9 °F 54% 29.87 in 10.0 mi SSW 10.4 mph - N/A   Partly Cloudy
6:53 AM 62.1 °F 46.9 °F 58% 29.88 in 9.0 mi South 3.5 mph - N/A   Partly Cloudy
7:53 AM 64.9 °F 48.9 °F 56% 29.88 in 9.0 mi SE 5.8 mph - N/A   Scattered Clouds
8:53 AM 71.1 °F 48.9 °F 45% 29.88 in 9.0 mi SSE 8.1 mph - N/A   Scattered Clouds
9:53 AM 78.1 °F 48.0 °F 35% 29.87 in 9.0 mi SSW 15.0 mph - N/A   Clear
10:53 AM 82.9 °F 48.9 °F 31% 29.86 in 10.0 mi South 12.7 mph - N/A   Clear
11:53 AM 88.0 °F 48.9 °F 26% 29.84 in 10.0 mi South 15.0 mph - N/A   Clear
12:53 PM 91.0 °F 42.1 °F 18% 29.82 in 10.0 mi South 13.8 mph - N/A   Clear
1:53 PM 91.0 °F 41.0 °F 17% 29.82 in 10.0 mi SSE 10.4 mph 26.5 mph N/A   Clear
2:53 PM 93.0 °F 41.0 °F 16% 29.80 in 10.0 mi South 13.8 mph 18.4 mph N/A   Clear
3:53 PM 91.9 °F 41.0 °F 17% 29.79 in 10.0 mi Calm Calm - N/A   Clear
4:53 PM 93.0 °F 42.1 °F 17% 29.78 in 10.0 mi SW 8.1 mph - N/A   Clear
5:53 PM 91.9 °F 43.0 °F 18% 29.77 in 10.0 mi SSE 8.1 mph - N/A   Clear
6:53 PM 93.0 °F 42.1 °F 17% 29.75 in 10.0 mi South 8.1 mph - N/A   Clear
7:53 PM 88.0 °F 44.1 °F 22% 29.75 in 10.0 mi SSE 8.1 mph - N/A   Clear
8:53 PM 84.9 °F 44.1 °F 24% 29.76 in 10.0 mi SSE 8.1 mph - N/A   Clear
9:53 PM 82.9 °F 44.1 °F 25% 29.76 in 10.0 mi SSE 11.5 mph - N/A   Clear
10:53 PM 81.0 °F 43.0 °F 26% 29.78 in 10.0 mi SSE 6.9 mph - N/A   Clear
11:53 PM 79.0 °F 44.1 °F 29% 29.77 in 10.0 mi North - - N/A   Clear